This demonstration page uses our WeatherBlox Daily Observations layout. Learn more.

Left ArrowRight Arrow

30.21309, -93.2044

Hourly Observations for July 6, 2022

Temp ( °F °C ) Dew Point ( °F °C ) Humidity (%) Winds ( mph kmh ) Pressure ( in mb ) Visibility ( mi km ) Precip ( " mm )
12:15 am 00:15 Clear 77 25.1 75 23.7 92 92 SSE 5 7 29.98 1015 10 16 0.00 0.00
12:35 am 00:35 Clear 77 25.1 75 23.8 93 93 SSE 3 6 29.99 1016 10 16 0.00 0.00
12:55 am 00:55 Clear 77 24.9 74 23.6 93 93 SSE 3 6 29.99 1016 10 16 0.00 0.00
1:15 am 01:15 Clear 77 24.9 74 23.6 93 93 SSE 3 6 29.99 1016 10 16 0.00 0.00
1:35 am 01:35 Clear 77 25 75 23.7 93 93 SSE 6 9 29.99 1016 10 16 0.00 0.00
1:55 am 01:55 Clear 78 25.4 75 24 92 92 S 5 7 29.99 1016 10 16 0.00 0.00
2:15 am 02:15 Clear 79 25.9 76 24.4 91 91 S 5 7 29.99 1016 10 16 0.00 0.00
2:35 am 02:35 Clear 78 25.4 76 24.2 93 93 Calm 29.99 1016 10 16 0.00 0.00
2:55 am 02:55 Clear 78 25.6 76 24.3 93 93 Calm 29.99 1016 10 16 0.00 0.00
3:15 am 03:15 Clear 78 25.7 76 24.4 93 93 Calm 29.99 1016 10 16 0.00 0.00
3:35 am 03:35 Clear 79 26.1 76 24.6 91 91 E 3 6 29.98 1015 10 16 0.00 0.00
3:55 am 03:55 Clear 79 26.2 76 24.6 91 91 Calm 29.98 1015 10 16 0.00 0.00
4:15 am 04:15 Clear 80 26.7 76 24.6 88 88 Calm 29.98 1015 10 16 0.00 0.00
4:35 am 04:35 Clear 79 26.2 76 24.5 90 90 S 3 6 29.98 1015 10 16 0.00 0.00
4:55 am 04:55 Clear 79 25.9 76 24.4 91 91 SSE 3 6 29.98 1015 10 16 0.00 0.00
5:15 am 05:15 Clear 78 25.6 76 24.4 93 93 Calm 29.98 1015 10 16 0.00 0.00
5:35 am 05:35 Clear 79 26.1 76 24.5 91 91 SSE 3 6 29.98 1015 10 16 0.00 0.00
6:00 am 06:00 Mostly Clear 79 26 75 24 89 89 Calm 29.98 1015 10 16 0.00 0.00
8:53 am 08:53 Mostly Cloudy 86 30 77 25 75 75 SSW 5 7 30.03 1017 10 16 0.00 0.00
9:47 am 09:47 Mostly Cloudy with Showers 86 30 75 24 70 70 SW 8 13 30.03 1017 7 11 0.00 0.00
10:55 am 10:55 Mostly Cloudy 81 27 75 24 84 84 S 6 9 30.04 1017 7 11 0.00 0.00
11:55 am 11:55 Mostly Cloudy with Light Rain 81 27 75 24 84 84 ESE 12 19 30.05 1018 7 11 0.00 0.00
12:55 pm 12:55 Mostly Cloudy with Thunderstorms 81 27 75 24 84 84 SSW 14 22 30.05 1018 10 16 0.00 0.00
1:47 pm 13:47 Partly Cloudy 82 28 73 23 74 74 WSW 8 13 30.04 1017 10 16 0.00 0.00
2:50 pm 14:50 Mostly Sunny 84 29 73 23 70 70 Calm 30.02 1017 10 16 0.00 0.00
3:50 pm 15:50 Mostly Sunny 86 30 75 24 70 70 Calm 30.00 1016 10 16 0.00 0.00
4:55 pm 16:55 Partly Cloudy 90 32 73 23 59 59 Calm 29.98 1015 10 16 0.00 0.00
5:50 pm 17:50 Partly Cloudy 90 32 73 23 59 59 SW 7 11 29.97 1015 10 16 0.00 0.00
6:50 pm 18:50 Partly Cloudy 88 31 73 23 62 62 Calm 29.97 1015 10 16 0.00 0.00
7:50 pm 19:50 Mostly Sunny 84 29 75 24 74 74 Calm 29.96 1015 10 16 0.00 0.00
8:55 pm 20:55 Mostly Clear 81 27 75 24 84 84 Calm 29.97 1015 10 16 0.00 0.00
9:45 pm 21:45 Mostly Clear 79 26 75 24 89 89 Calm 29.98 1015 10 16 0.00 0.00
10:15 pm 22:15 Clear 80 26.4 76 24.3 88 88 S 6 9 29.99 1016 10 16 0.00 0.00
10:35 pm 22:35 Clear 80 26.4 76 24.3 88 88 S 6 9 29.99 1016 10 16 0.00 0.00
10:55 pm 22:55 Clear 78 25.8 76 24.2 91 91 SSE 3 6 29.99 1016 10 16 0.00 0.00
11:15 pm 23:15 Clear 78 25.4 75 24 92 92 S 3 6 29.99 1016 10 16 0.00 0.00
11:35 pm 23:35 Clear 78 25.4 75 24 92 92 SSE 7 11 29.99 1016 10 16 0.00 0.00
11:55 pm 23:55 Clear 78 25.8 76 24.4 92 92 SSE 6 9 29.99 1016 10 16 0.00 0.00

Powered by AerisWeather